Location: Strawberry
(45.6646°N, 111.9596°W)
Time: 01:02:05
(UTC+00:00)

Vanguard 1 Rocket - Pass Details

Date: 28 September 2022
Orbit: 650 x 4225 km, 34.3° (Epoch: 05 December)

Event Time Altitude Azimuth Distance (km) Brightness Sun altitude
Rises 06:17:47 0° 253° (WSW) 6,516 11.8 -44.4°
Reaches altitude 10° 06:23:10 10° 247° (WSW) 4,884 11.0 -44.7°
Enters shadow 06:25:11 15° 244° (WSW) 4,260 10.7 -44.8°
